Location: Oregon Trail
(41.1872°N, 102.0741°W)
Time: 07:26:12
(UTC+00:00)

Cosmos 1315 Rocket - Pass Details

Date: 19 November 2019
Orbit: 530 x 568 km, 81.2° (Epoch: 09 December)

Event Time Altitude Azimuth Distance (km) Brightness Sun altitude
Rises 12:59:46 0° 354° (N) 2,723 6.1 -8.0°
Reaches altitude 10° 13:01:58 10° 358° (N) 1,831 5.3 -7.6°
Maximum altitude 13:05:57 60° 78° (ENE) 638 3.5 -6.9°
Drops below altitude 10° 13:09:58 10° 160° (SSE) 1,839 6.1 -6.2°
Sets 13:12:10 0° 163° (SSE) 2,735 7.0 -5.8°
